This is the latest recevied weather packets stored in our database for station/object K5OLV. If no packets are shown the sender has not sent any weather packets the latest 10 day(s).
| Time | Temp. | Humidity | Pressure | Rain* | Wind** | Luminosity | Snow |
|---|---|---|---|---|---|---|---|
| 1788455071 | 31.67° C | 67% | 1017.3 hPa | 0 mm | - | 675 W/m² | - |
| 1788454770 | 31.67° C | 65% | 1017.4 hPa | 0 mm | - | 667 W/m² | - |
| 1788454465 | 32.22° C | 65% | 1017.2 hPa | 0 mm | - | 684 W/m² | - |
| 1788454165 | 31.11° C | 64% | 1017.2 hPa | 0 mm | - | 701 W/m² | - |
| 1788453860 | 30.56° C | 68% | 1017.5 hPa | 0 mm | - | 711 W/m² | - |
| 1788453560 | 31.67° C | 69% | 1017.5 hPa | 0 mm | - | 711 W/m² | - |
| 1788453256 | 31.11° C | 69% | 1017.4 hPa | 0 mm | - | 638 W/m² | - |
| 1788452952 | 31.11° C | 69% | 1017.4 hPa | 0 mm | - | 696 W/m² | - |
| 1788452648 | 30.56° C | 72% | 1017.7 hPa | 0 mm | - | 705 W/m² | - |
| 1788452343 | 30.56° C | 73% | 1017.4 hPa | 0 mm | - | 680 W/m² | - |
| 1788452038 | 30.56° C | 75% | 1017.3 hPa | 0 mm | - | 696 W/m² | - |
| 1788451734 | 30° C | 75% | 1017.7 hPa | 0 mm | - | 701 W/m² | - |
| 1788451433 | 30° C | 76% | 1017.7 hPa | 0 mm | - | 684 W/m² | - |
| 1788451131 | 30° C | 76% | 1017.5 hPa | 0 mm | - | 710 W/m² | - |
| 1788450827 | 30° C | 77% | 1017.4 hPa | 0 mm | - | 723 W/m² | - |
| 1788450522 | 30° C | 77% | 1017.5 hPa | 0 mm | - | 688 W/m² | - |
| 1788450233 | 30° C | 77% | 1017.5 hPa | 0 mm | - | 716 W/m² | - |
| 1788449913 | 29.44° C | 79% | 1017.3 hPa | 0 mm | - | 715 W/m² | - |
| 1788449609 | 28.89° C | 79% | 1017.2 hPa | 0 mm | - | 717 W/m² | - |
| 1788449305 | 28.89° C | 80% | 1017.8 hPa | 0 mm | - | 652 W/m² | - |
| 1788449001 | 28.33° C | 81% | 1017.5 hPa | 0 mm | - | 673 W/m² | - |
| 1788448696 | 28.33° C | 83% | 1017.5 hPa | 0 mm | - | 639 W/m² | - |
| 1788448392 | 28.89° C | 83% | 1017.7 hPa | 0 mm | - | 632 W/m² | - |
| 1788448092 | 28.89° C | 82% | 1017.5 hPa | 0 mm | - | 619 W/m² | - |
| 1788447792 | 28.89° C | 80% | 1017.4 hPa | 0 mm | - | 606 W/m² | - |
* Rain latest hour (hover to see other rain measurements)
** Current wind speed in m/s (hover to see current wind gust speed)